contact:dominique.lefevre@mio.osupytheas.fr, maurice.libes@osupytheas.fr, didier.mallarino@osupytheas.fr
Project:EMSO http://www.emso-fr.org/EMSO-France
Depth: 2436.0 m
Title:EMSO Ligure Ouest : Data MII capteur MICROCAT
DateTime_Computer,Latitude,Longitude,Temperature,Conductivity,Pressure,DateTime_Instrument
DateTime_Computer,Latitude,Longitude,degC,S m-1,dbar,DateTime_Instrument
2020-03-28T00:02:30Z,42.805,6.029,13.2970,4.59969,2470.007,2020-3-28T02:03:08Z
2020-03-28T00:05:33Z,42.805,6.029,13.2971,4.59971,2470.007,2020-3-28T02:06:12Z
2020-03-28T00:08:37Z,42.805,6.029,13.2970,4.59970,2469.984,2020-3-28T02:09:15Z
2020-03-28T00:11:40Z,42.805,6.029,13.2970,4.59971,2470.017,2020-3-28T02:12:18Z
2020-03-28T00:14:43Z,42.805,6.029,13.2971,4.59971,2469.97,2020-3-28T02:15:21Z
2020-03-28T00:17:46Z,42.805,6.029,13.2968,4.59971,2469.993,2020-3-28T02:18:25Z
2020-03-28T00:20:50Z,42.805,6.029,13.2967,4.59971,2470.03,2020-3-28T02:21:28Z
2020-03-28T00:23:53Z,42.805,6.029,13.2967,4.59972,2470.017,2020-3-28T02:24:31Z
2020-03-28T00:26:56Z,42.805,6.029,13.2964,4.59971,2470.03,2020-3-28T02:27:34Z
2020-03-28T00:29:59Z,42.805,6.029,13.2968,4.59971,2469.993,2020-3-28T02:30:37Z
2020-03-28T00:33:03Z,42.805,6.029,13.2968,4.59969,2470.007,2020-3-28T02:33:41Z
2020-03-28T00:36:06Z,42.805,6.029,13.2970,4.59971,2469.993,2020-3-28T02:36:44Z
2020-03-28T00:39:09Z,42.805,6.029,13.2965,4.59972,2469.97,2020-3-28T02:39:47Z
2020-03-28T00:42:12Z,42.805,6.029,13.2969,4.59969,2470.007,2020-3-28T02:42:50Z
2020-03-28T00:45:15Z,42.805,6.029,13.2966,4.59970,2469.97,2020-3-28T02:45:54Z
2020-03-28T00:48:19Z,42.805,6.029,13.2968,4.59971,2469.97,2020-3-28T02:48:57Z
2020-03-28T00:51:22Z,42.805,6.029,13.2969,4.59970,2469.993,2020-3-28T02:52:00Z
2020-03-28T00:54:25Z,42.805,6.029,13.2968,4.59968,2469.97,2020-3-28T02:55:03Z
2020-03-28T00:57:29Z,42.805,6.029,13.2968,4.59971,2469.984,2020-3-28T02:58:07Z
2020-03-28T01:00:32Z,42.805,6.029,13.2967,4.59970,2469.984,2020-3-28T03:01:10Z
2020-03-28T01:03:35Z,42.805,6.029,13.2968,4.59970,2469.984,2020-3-28T03:04:13Z
2020-03-28T01:06:38Z,42.805,6.029,13.2966,4.59969,2469.97,2020-3-28T03:07:16Z
2020-03-28T01:09:41Z,42.805,6.029,13.2964,4.59969,2469.947,2020-3-28T03:10:20Z
2020-03-28T01:12:45Z,42.805,6.029,13.2964,4.59971,2469.984,2020-3-28T03:13:23Z
2020-03-28T01:15:48Z,42.805,6.029,13.2968,4.59968,2469.947,2020-3-28T03:16:26Z
2020-03-28T01:18:51Z,42.805,6.029,13.2967,4.59970,2469.937,2020-3-28T03:19:29Z
2020-03-28T01:21:54Z,42.805,6.029,13.2964,4.59970,2469.97,2020-3-28T03:22:33Z
2020-03-28T01:24:58Z,42.805,6.029,13.2968,4.59969,2469.947,2020-3-28T03:25:36Z
2020-03-28T01:28:01Z,42.805,6.029,13.2971,4.59970,2469.984,2020-3-28T03:28:39Z
2020-03-28T01:31:04Z,42.805,6.029,13.2968,4.59968,2469.993,2020-3-28T03:31:42Z
2020-03-28T01:34:07Z,42.805,6.029,13.2966,4.59970,2469.96,2020-3-28T03:34:45Z
2020-03-28T01:37:10Z,42.805,6.029,13.2970,4.59971,2469.993,2020-3-28T03:37:49Z
2020-03-28T01:40:14Z,42.805,6.029,13.2965,4.59969,2469.96,2020-3-28T03:40:52Z
2020-03-28T01:43:17Z,42.805,6.029,13.2968,4.59969,2469.97,2020-3-28T03:43:55Z
2020-03-28T01:46:20Z,42.805,6.029,13.2970,4.59968,2469.947,2020-3-28T03:46:58Z
2020-03-28T01:49:24Z,42.805,6.029,13.2967,4.59968,2469.96,2020-3-28T03:50:02Z
2020-03-28T01:52:27Z,42.805,6.029,13.2969,4.59970,2469.923,2020-3-28T03:53:05Z
2020-03-28T01:55:30Z,42.805,6.029,13.2967,4.59969,2469.984,2020-3-28T03:56:08Z
2020-03-28T01:58:33Z,42.805,6.029,13.2966,4.59968,2469.96,2020-3-28T03:59:11Z
2020-03-28T02:01:37Z,42.805,6.029,13.2964,4.59969,2469.96,2020-3-28T04:02:15Z
2020-03-28T02:04:40Z,42.805,6.029,13.2965,4.59968,2469.937,2020-3-28T04:05:18Z
2020-03-28T02:07:43Z,42.805,6.029,13.2967,4.59969,2469.947,2020-3-28T04:08:21Z
2020-03-28T02:10:46Z,42.805,6.029,13.2964,4.59969,2469.947,2020-3-28T04:11:24Z
2020-03-28T02:13:50Z,42.805,6.029,13.2968,4.59968,2469.97,2020-3-28T04:14:28Z
2020-03-28T02:16:53Z,42.805,6.029,13.2968,4.59968,2469.96,2020-3-28T04:17:31Z
2020-03-28T02:19:56Z,42.805,6.029,13.2967,4.59969,2469.947,2020-3-28T04:20:34Z
2020-03-28T02:22:59Z,42.805,6.029,13.2968,4.59969,2469.947,2020-3-28T04:23:38Z
2020-03-28T02:26:03Z,42.805,6.029,13.2966,4.59968,2469.96,2020-3-28T04:26:41Z
2020-03-28T02:29:06Z,42.805,6.029,13.2964,4.59970,2469.923,2020-3-28T04:29:44Z
2020-03-28T02:32:09Z,42.805,6.029,13.2967,4.59968,2469.937,2020-3-28T04:32:47Z
2020-03-28T02:35:12Z,42.805,6.029,13.2964,4.59968,2469.96,2020-3-28T04:35:51Z
2020-03-28T02:38:16Z,42.805,6.029,13.2965,4.59970,2469.923,2020-3-28T04:38:54Z
2020-03-28T02:41:19Z,42.805,6.029,13.2966,4.59968,2469.937,2020-3-28T04:41:57Z
2020-03-28T02:44:22Z,42.805,6.029,13.2968,4.59967,2469.923,2020-3-28T04:45:00Z
2020-03-28T02:47:26Z,42.805,6.029,13.2967,4.59967,2469.96,2020-3-28T04:48:04Z
2020-03-28T02:50:29Z,42.805,6.029,13.2964,4.59968,2469.9,2020-3-28T04:51:07Z
2020-03-28T02:53:32Z,42.805,6.029,13.2962,4.59968,2469.947,2020-3-28T04:54:10Z
2020-03-28T02:56:35Z,42.805,6.029,13.2968,4.59972,2469.923,2020-3-28T04:57:14Z
2020-03-28T02:59:39Z,42.805,6.029,13.2968,4.59968,2469.923,2020-3-28T05:00:17Z
2020-03-28T03:02:42Z,42.805,6.029,13.2968,4.59969,2469.923,2020-3-28T05:03:20Z
2020-03-28T03:05:45Z,42.805,6.029,13.2966,4.59969,2469.909,2020-3-28T05:06:23Z
2020-03-28T03:08:48Z,42.805,6.029,13.2966,4.59968,2469.923,2020-3-28T05:09:26Z
2020-03-28T03:11:52Z,42.805,6.029,13.2965,4.59968,2469.97,2020-3-28T05:12:30Z
2020-03-28T03:14:55Z,42.805,6.029,13.2970,4.59969,2469.96,2020-3-28T05:15:33Z
2020-03-28T03:17:58Z,42.805,6.029,13.2966,4.59968,2469.984,2020-3-28T05:18:36Z
2020-03-28T03:21:01Z,42.805,6.029,13.2968,4.59968,2469.947,2020-3-28T05:21:39Z
2020-03-28T03:24:05Z,42.805,6.029,13.2968,4.59967,2469.923,2020-3-28T05:24:43Z
2020-03-28T03:27:08Z,42.805,6.029,13.2967,4.59968,2469.914,2020-3-28T05:27:46Z
2020-03-28T03:30:11Z,42.805,6.029,13.2969,4.59969,2469.937,2020-3-28T05:30:49Z
2020-03-28T03:33:14Z,42.805,6.029,13.2965,4.59970,2469.984,2020-3-28T05:33:52Z
2020-03-28T03:36:17Z,42.805,6.029,13.2968,4.59970,2469.9,2020-3-28T05:36:56Z
2020-03-28T03:39:21Z,42.805,6.029,13.2966,4.59968,2469.9,2020-3-28T05:39:59Z
2020-03-28T03:42:24Z,42.805,6.029,13.2967,4.59968,2469.923,2020-3-28T05:43:02Z
2020-03-28T03:45:27Z,42.805,6.029,13.2969,4.59969,2469.914,2020-3-28T05:46:05Z
2020-03-28T03:48:30Z,42.805,6.029,13.2967,4.59968,2469.947,2020-3-28T05:49:09Z
2020-03-28T03:51:34Z,42.805,6.029,13.2964,4.59968,2469.923,2020-3-28T05:52:12Z
2020-03-28T03:54:37Z,42.805,6.029,13.2967,4.59970,2469.923,2020-3-28T05:55:15Z
2020-03-28T03:57:40Z,42.805,6.029,13.2970,4.59969,2469.923,2020-3-28T05:58:19Z
2020-03-28T04:00:44Z,42.805,6.029,13.2966,4.59968,2469.923,2020-3-28T06:01:22Z
2020-03-28T04:03:47Z,42.805,6.029,13.2967,4.59968,2469.97,2020-3-28T06:04:25Z
2020-03-28T04:06:50Z,42.805,6.029,13.2971,4.59971,2469.947,2020-3-28T06:07:28Z
2020-03-28T04:09:54Z,42.805,6.029,13.2967,4.59968,2469.947,2020-3-28T06:10:32Z
2020-03-28T04:12:57Z,42.805,6.029,13.2964,4.59969,2469.923,2020-3-28T06:13:35Z
2020-03-28T04:16:00Z,42.805,6.029,13.2967,4.59968,2469.923,2020-3-28T06:16:38Z
2020-03-28T04:19:03Z,42.805,6.029,13.2970,4.59968,2469.937,2020-3-28T06:19:41Z
2020-03-28T04:22:06Z,42.805,6.029,13.2966,4.59968,2469.947,2020-3-28T06:22:45Z
2020-03-28T04:25:10Z,42.805,6.029,13.2969,4.59968,2469.947,2020-3-28T06:25:48Z
2020-03-28T04:28:13Z,42.805,6.029,13.2971,4.59968,2469.937,2020-3-28T06:28:51Z
2020-03-28T04:31:16Z,42.805,6.029,13.2964,4.59968,2469.923,2020-3-28T06:31:54Z
2020-03-28T04:34:19Z,42.805,6.029,13.2964,4.59969,2469.947,2020-3-28T06:34:58Z
2020-03-28T04:37:23Z,42.805,6.029,13.2968,4.59968,2469.937,2020-3-28T06:38:01Z
2020-03-28T04:40:26Z,42.805,6.029,13.2968,4.59968,2469.9,2020-3-28T06:41:04Z
2020-03-28T04:43:29Z,42.805,6.029,13.2969,4.59968,2469.923,2020-3-28T06:44:07Z
2020-03-28T04:46:32Z,42.805,6.029,13.2967,4.59968,2469.96,2020-3-28T06:47:11Z
2020-03-28T04:49:36Z,42.805,6.029,13.2967,4.59968,2469.923,2020-3-28T06:50:14Z
2020-03-28T04:52:39Z,42.805,6.029,13.2967,4.59969,2469.947,2020-3-28T06:53:17Z
2020-03-28T04:55:42Z,42.805,6.029,13.2968,4.59968,2469.914,2020-3-28T06:56:21Z
2020-03-28T04:58:46Z,42.805,6.029,13.2971,4.59968,2469.933,2020-3-28T06:59:24Z
2020-03-28T05:01:49Z,42.805,6.029,13.2970,4.59969,2469.937,2020-3-28T07:02:27Z
2020-03-28T05:04:52Z,42.805,6.029,13.2968,4.59968,2469.923,2020-3-28T07:05:31Z
2020-03-28T05:07:56Z,42.805,6.029,13.2970,4.59968,2469.984,2020-3-28T07:08:34Z
2020-03-28T05:10:59Z,42.805,6.029,13.2968,4.59967,2469.984,2020-3-28T07:11:37Z
2020-03-28T05:14:02Z,42.805,6.029,13.2968,4.59968,2469.96,2020-3-28T07:14:40Z
2020-03-28T05:17:06Z,42.805,6.029,13.2967,4.59969,2469.96,2020-3-28T07:17:44Z
2020-03-28T05:20:09Z,42.805,6.029,13.2971,4.59968,2469.937,2020-3-28T07:20:47Z
2020-03-28T05:23:12Z,42.805,6.029,13.2967,4.59969,2469.993,2020-3-28T07:23:50Z
2020-03-28T05:26:15Z,42.805,6.029,13.2966,4.59968,2469.984,2020-3-28T07:26:53Z
2020-03-28T05:29:18Z,42.805,6.029,13.2967,4.59971,2469.984,2020-3-28T07:29:57Z
2020-03-28T05:32:22Z,42.805,6.029,13.2966,4.59970,2469.984,2020-3-28T07:33:00Z
2020-03-28T05:35:25Z,42.805,6.029,13.2968,4.59967,2469.96,2020-3-28T07:36:03Z
2020-03-28T05:38:28Z,42.805,6.029,13.2967,4.59969,2469.96,2020-3-28T07:39:06Z
2020-03-28T05:41:32Z,42.805,6.029,13.2972,4.59968,2469.97,2020-3-28T07:42:10Z
2020-03-28T05:44:35Z,42.805,6.029,13.2967,4.59970,2469.97,2020-3-28T07:45:13Z
2020-03-28T05:47:39Z,42.805,6.029,13.2965,4.59970,2469.97,2020-3-28T07:48:17Z
2020-03-28T05:50:42Z,42.805,6.029,13.2966,4.59969,2469.993,2020-3-28T07:51:20Z
2020-03-28T05:53:45Z,42.805,6.029,13.2971,4.59968,2469.993,2020-3-28T07:54:23Z
2020-03-28T05:56:48Z,42.805,6.029,13.2968,4.59970,2469.97,2020-3-28T07:57:26Z
2020-03-28T05:59:52Z,42.805,6.029,13.2970,4.59969,2469.956,2020-3-28T08:00:30Z
2020-03-28T06:02:55Z,42.805,6.029,13.2964,4.59968,2470.007,2020-3-28T08:03:33Z
2020-03-28T06:05:58Z,42.805,6.029,13.2964,4.59971,2469.993,2020-3-28T08:06:36Z
2020-03-28T06:09:02Z,42.805,6.029,13.2967,4.59968,2469.96,2020-3-28T08:09:40Z
2020-03-28T06:12:05Z,42.805,6.029,13.2963,4.59970,2469.993,2020-3-28T08:12:43Z
2020-03-28T06:15:08Z,42.805,6.029,13.2966,4.59968,2469.993,2020-3-28T08:15:46Z
2020-03-28T06:18:11Z,42.805,6.029,13.2968,4.59968,2470.007,2020-3-28T08:18:50Z
2020-03-28T06:21:15Z,42.805,6.029,13.2967,4.59970,2469.993,2020-3-28T08:21:53Z
2020-03-28T06:24:18Z,42.805,6.029,13.2967,4.59968,2469.97,2020-3-28T08:24:56Z
2020-03-28T06:27:21Z,42.805,6.029,13.2970,4.59970,2470.017,2020-3-28T08:27:59Z
2020-03-28T06:30:25Z,42.805,6.029,13.2968,4.59970,2470.017,2020-3-28T08:31:03Z
2020-03-28T06:33:28Z,42.805,6.029,13.2965,4.59968,2469.993,2020-3-28T08:34:06Z
2020-03-28T06:36:31Z,42.805,6.029,13.2970,4.59969,2470.017,2020-3-28T08:37:09Z
2020-03-28T06:39:34Z,42.805,6.029,13.2966,4.59968,2469.993,2020-3-28T08:40:13Z
2020-03-28T06:42:38Z,42.805,6.029,13.2966,4.59967,2470.017,2020-3-28T08:43:16Z
2020-03-28T06:45:41Z,42.805,6.029,13.2966,4.59970,2470.007,2020-3-28T08:46:19Z
2020-03-28T06:48:44Z,42.805,6.029,13.2968,4.59969,2470.017,2020-3-28T08:49:22Z
2020-03-28T06:51:47Z,42.805,6.029,13.2969,4.59971,2470.03,2020-3-28T08:52:25Z
2020-03-28T06:54:50Z,42.805,6.029,13.2965,4.59969,2470.03,2020-3-28T08:55:29Z
2020-03-28T06:57:54Z,42.805,6.029,13.2965,4.59968,2470.017,2020-3-28T08:58:32Z
2020-03-28T07:00:57Z,42.805,6.029,13.2966,4.59971,2470.017,2020-3-28T09:01:35Z
2020-03-28T07:04:00Z,42.805,6.029,13.2966,4.59968,2470.03,2020-3-28T09:04:38Z
2020-03-28T07:07:03Z,42.805,6.029,13.2968,4.59968,2470.04,2020-3-28T09:07:42Z
2020-03-28T07:10:07Z,42.805,6.029,13.2966,4.59970,2470.04,2020-3-28T09:10:45Z
2020-03-28T07:13:10Z,42.805,6.029,13.2966,4.59967,2470.04,2020-3-28T09:13:48Z
2020-03-28T07:16:13Z,42.805,6.029,13.2966,4.59972,2470.063,2020-3-28T09:16:51Z
2020-03-28T07:19:16Z,42.805,6.029,13.2967,4.59972,2470.04,2020-3-28T09:19:55Z
2020-03-28T07:22:20Z,42.805,6.029,13.2968,4.59970,2470.077,2020-3-28T09:22:58Z
2020-03-28T07:25:23Z,42.805,6.029,13.2967,4.59970,2470.063,2020-3-28T09:26:01Z
2020-03-28T07:28:26Z,42.805,6.029,13.2965,4.59969,2470.077,2020-3-28T09:29:04Z
2020-03-28T07:31:29Z,42.805,6.029,13.2968,4.59970,2470.04,2020-3-28T09:32:08Z
2020-03-28T07:34:33Z,42.805,6.029,13.2968,4.59968,2470.063,2020-3-28T09:35:11Z
2020-03-28T07:37:36Z,42.805,6.029,13.2964,4.59968,2470.1,2020-3-28T09:38:14Z
2020-03-28T07:40:39Z,42.805,6.029,13.2964,4.59969,2470.053,2020-3-28T09:41:17Z
2020-03-28T07:43:42Z,42.805,6.029,13.2968,4.59970,2470.087,2020-3-28T09:44:21Z
2020-03-28T07:46:46Z,42.805,6.029,13.2968,4.59972,2470.087,2020-3-28T09:47:24Z
2020-03-28T07:49:49Z,42.805,6.029,13.2964,4.59973,2470.063,2020-3-28T09:50:27Z
2020-03-28T07:52:52Z,42.805,6.029,13.2962,4.59970,2470.087,2020-3-28T09:53:30Z
2020-03-28T07:55:55Z,42.805,6.029,13.2966,4.59968,2470.087,2020-3-28T09:56:34Z
2020-03-28T07:58:59Z,42.805,6.029,13.2967,4.59968,2470.087,2020-3-28T09:59:37Z
2020-03-28T08:02:02Z,42.805,6.029,13.2968,4.59968,2470.077,2020-3-28T10:02:40Z
2020-03-28T08:05:05Z,42.805,6.029,13.2966,4.59969,2470.087,2020-3-28T10:05:43Z
2020-03-28T08:08:08Z,42.805,6.029,13.2966,4.59972,2470.1,2020-3-28T10:08:47Z
2020-03-28T08:11:12Z,42.805,6.029,13.2964,4.59971,2470.11,2020-3-28T10:11:50Z
2020-03-28T08:14:15Z,42.805,6.029,13.2964,4.59967,2470.11,2020-3-28T10:14:53Z
2020-03-28T08:17:18Z,42.805,6.029,13.2966,4.59967,2470.087,2020-3-28T10:17:56Z
2020-03-28T08:20:21Z,42.805,6.029,13.2967,4.59968,2470.147,2020-3-28T10:21:00Z
2020-03-28T08:23:25Z,42.805,6.029,13.2967,4.59970,2470.087,2020-3-28T10:24:03Z
2020-03-28T08:26:28Z,42.805,6.029,13.2967,4.59973,2470.124,2020-3-28T10:27:06Z
2020-03-28T08:29:31Z,42.805,6.029,13.2967,4.59972,2470.11,2020-3-28T10:30:09Z
2020-03-28T08:32:34Z,42.805,6.029,13.2968,4.59968,2470.133,2020-3-28T10:33:13Z
2020-03-28T08:35:38Z,42.805,6.029,13.2966,4.59972,2470.11,2020-3-28T10:36:16Z
2020-03-28T08:38:41Z,42.805,6.029,13.2965,4.59971,2470.087,2020-3-28T10:39:19Z
2020-03-28T08:41:44Z,42.805,6.029,13.2964,4.59973,2470.124,2020-3-28T10:42:23Z
2020-03-28T08:44:48Z,42.805,6.029,13.2964,4.59972,2470.133,2020-3-28T10:45:26Z
2020-03-28T08:47:51Z,42.805,6.029,13.2964,4.59968,2470.087,2020-3-28T10:48:29Z
2020-03-28T08:50:54Z,42.805,6.029,13.2964,4.59974,2470.124,2020-3-28T10:51:32Z
2020-03-28T08:53:58Z,42.805,6.029,13.2965,4.59976,2470.11,2020-3-28T10:54:36Z
2020-03-28T08:57:01Z,42.805,6.029,13.2967,4.59973,2470.124,2020-3-28T10:57:39Z
2020-03-28T09:00:04Z,42.805,6.029,13.2963,4.59973,2470.11,2020-3-28T11:00:43Z
2020-03-28T09:03:08Z,42.805,6.029,13.2968,4.59973,2470.1,2020-3-28T11:03:46Z
2020-03-28T09:06:11Z,42.805,6.029,13.2964,4.59971,2470.133,2020-3-28T11:06:49Z
2020-03-28T09:09:14Z,42.805,6.029,13.2962,4.59973,2470.133,2020-3-28T11:09:52Z
2020-03-28T09:12:17Z,42.805,6.029,13.2968,4.59973,2470.11,2020-3-28T11:12:56Z
2020-03-28T09:15:21Z,42.805,6.029,13.2964,4.59973,2470.133,2020-3-28T11:15:59Z
2020-03-28T09:18:24Z,42.805,6.029,13.2966,4.59974,2470.133,2020-3-28T11:19:02Z
2020-03-28T09:21:27Z,42.805,6.029,13.2963,4.59972,2470.1,2020-3-28T11:22:05Z
2020-03-28T09:24:31Z,42.805,6.029,13.2961,4.59968,2470.11,2020-3-28T11:25:09Z
2020-03-28T09:27:34Z,42.805,6.029,13.2968,4.59971,2470.133,2020-3-28T11:28:12Z
2020-03-28T09:30:37Z,42.805,6.029,13.2963,4.59973,2470.11,2020-3-28T11:31:15Z
2020-03-28T09:33:40Z,42.805,6.029,13.2967,4.59971,2470.087,2020-3-28T11:34:18Z
2020-03-28T09:36:43Z,42.805,6.029,13.2962,4.59976,2470.133,2020-3-28T11:37:22Z
2020-03-28T09:39:47Z,42.805,6.029,13.2965,4.59973,2470.124,2020-3-28T11:40:25Z
2020-03-28T09:42:50Z,42.805,6.029,13.2966,4.59972,2470.077,2020-3-28T11:43:28Z
2020-03-28T09:45:53Z,42.805,6.029,13.2964,4.59970,2470.11,2020-3-28T11:46:31Z
2020-03-28T09:48:57Z,42.805,6.029,13.2967,4.59971,2470.11,2020-3-28T11:49:35Z
2020-03-28T09:52:00Z,42.805,6.029,13.2961,4.59977,2470.11,2020-3-28T11:52:38Z
2020-03-28T09:55:03Z,42.805,6.029,13.2965,4.59973,2470.087,2020-3-28T11:55:41Z
2020-03-28T09:58:07Z,42.805,6.029,13.2967,4.59973,2470.124,2020-3-28T11:58:45Z
2020-03-28T10:01:10Z,42.805,6.029,13.2966,4.59974,2470.1,2020-3-28T12:01:48Z
2020-03-28T10:04:13Z,42.805,6.029,13.2968,4.59973,2470.11,2020-3-28T12:04:51Z
2020-03-28T10:07:16Z,42.805,6.029,13.2965,4.59972,2470.124,2020-3-28T12:07:54Z
2020-03-28T10:10:20Z,42.805,6.029,13.2964,4.59976,2470.11,2020-3-28T12:10:58Z
2020-03-28T10:13:23Z,42.805,6.029,13.2963,4.59974,2470.147,2020-3-28T12:14:01Z
2020-03-28T10:16:26Z,42.805,6.029,13.2967,4.59972,2470.124,2020-3-28T12:17:04Z
2020-03-28T10:19:29Z,42.805,6.029,13.2965,4.59975,2470.11,2020-3-28T12:20:08Z
2020-03-28T10:22:33Z,42.805,6.029,13.2963,4.59969,2470.087,2020-3-28T12:23:11Z
2020-03-28T10:25:36Z,42.805,6.029,13.2964,4.59971,2470.1,2020-3-28T12:26:14Z
2020-03-28T10:28:39Z,42.805,6.029,13.2968,4.59971,2470.087,2020-3-28T12:29:17Z
2020-03-28T10:31:42Z,42.805,6.029,13.2967,4.59970,2470.063,2020-3-28T12:32:21Z
2020-03-28T10:34:46Z,42.805,6.029,13.2969,4.59973,2470.1,2020-3-28T12:35:24Z
2020-03-28T10:37:49Z,42.805,6.029,13.2967,4.59972,2470.11,2020-3-28T12:38:27Z
2020-03-28T10:40:52Z,42.805,6.029,13.2968,4.59971,2470.087,2020-3-28T12:41:30Z
2020-03-28T10:43:55Z,42.805,6.029,13.2967,4.59969,2470.087,2020-3-28T12:44:34Z
2020-03-28T10:46:59Z,42.805,6.029,13.2964,4.59971,2470.087,2020-3-28T12:47:37Z
2020-03-28T10:50:02Z,42.805,6.029,13.2967,4.59973,2470.063,2020-3-28T12:50:40Z
2020-03-28T10:53:05Z,42.805,6.029,13.2964,4.59971,2470.11,2020-3-28T12:53:43Z
2020-03-28T10:56:08Z,42.805,6.029,13.2963,4.59970,2470.087,2020-3-28T12:56:46Z
2020-03-28T10:59:12Z,42.805,6.029,13.2962,4.59968,2470.087,2020-3-28T12:59:50Z
2020-03-28T11:02:15Z,42.805,6.029,13.2963,4.59971,2470.063,2020-3-28T13:02:53Z
2020-03-28T11:05:18Z,42.805,6.029,13.2967,4.59972,2470.053,2020-3-28T13:05:56Z
2020-03-28T11:08:21Z,42.805,6.029,13.2964,4.59971,2470.087,2020-3-28T13:09:00Z
2020-03-28T11:11:25Z,42.805,6.029,13.2965,4.59970,2470.077,2020-3-28T13:12:03Z
2020-03-28T11:14:28Z,42.805,6.029,13.2962,4.59971,2470.1,2020-3-28T13:15:06Z
2020-03-28T11:17:31Z,42.805,6.029,13.2961,4.59972,2470.1,2020-3-28T13:18:10Z
2020-03-28T11:20:35Z,42.805,6.029,13.2966,4.59971,2470.087,2020-3-28T13:21:13Z
2020-03-28T11:23:38Z,42.805,6.029,13.2967,4.59972,2470.04,2020-3-28T13:24:16Z
2020-03-28T11:26:41Z,42.805,6.029,13.2966,4.59970,2470.073,2020-3-28T13:27:19Z
2020-03-28T11:29:44Z,42.805,6.029,13.2965,4.59971,2470.04,2020-3-28T13:30:23Z
2020-03-28T11:32:48Z,42.805,6.029,13.2968,4.59970,2470.063,2020-3-28T13:33:26Z
2020-03-28T11:35:51Z,42.805,6.029,13.2963,4.59971,2470.077,2020-3-28T13:36:29Z
2020-03-28T11:38:54Z,42.805,6.029,13.2963,4.59969,2470.04,2020-3-28T13:39:32Z
2020-03-28T11:41:57Z,42.805,6.029,13.2966,4.59970,2470.053,2020-3-28T13:42:35Z
2020-03-28T11:45:00Z,42.805,6.029,13.2964,4.59969,2470.077,2020-3-28T13:45:39Z
2020-03-28T11:48:04Z,42.805,6.029,13.2965,4.59971,2470.053,2020-3-28T13:48:42Z
2020-03-28T11:51:07Z,42.805,6.029,13.2969,4.59968,2470.03,2020-3-28T13:51:45Z
2020-03-28T11:54:11Z,42.805,6.029,13.2966,4.59971,2470.077,2020-3-28T13:54:49Z
2020-03-28T11:57:14Z,42.805,6.029,13.2969,4.59969,2470.04,2020-3-28T13:57:52Z
2020-03-28T12:00:17Z,42.805,6.029,13.2967,4.59971,2470.04,2020-3-28T14:00:55Z
2020-03-28T12:03:20Z,42.805,6.029,13.2964,4.59971,2470.063,2020-3-28T14:03:58Z
2020-03-28T12:06:23Z,42.805,6.029,13.2966,4.59968,2470.077,2020-3-28T14:07:02Z
2020-03-28T12:09:27Z,42.805,6.029,13.2961,4.59969,2470.077,2020-3-28T14:10:05Z
2020-03-28T12:12:30Z,42.805,6.029,13.2966,4.59970,2470.063,2020-3-28T14:13:08Z
2020-03-28T12:15:33Z,42.805,6.029,13.2965,4.59968,2470.017,2020-3-28T14:16:11Z
2020-03-28T12:18:36Z,42.805,6.029,13.2967,4.59968,2470.017,2020-3-28T14:19:15Z
2020-03-28T12:21:40Z,42.805,6.029,13.2967,4.59968,2470.017,2020-3-28T14:22:18Z
2020-03-28T12:24:43Z,42.805,6.029,13.2967,4.59972,2470.053,2020-3-28T14:25:21Z
2020-03-28T12:27:46Z,42.805,6.029,13.2964,4.59968,2470.063,2020-3-28T14:28:24Z
2020-03-28T12:30:49Z,42.805,6.029,13.2964,4.59968,2470.017,2020-3-28T14:31:28Z
2020-03-28T12:33:53Z,42.805,6.029,13.2967,4.59969,2470.053,2020-3-28T14:34:31Z
2020-03-28T12:36:56Z,42.805,6.029,13.2964,4.59970,2469.993,2020-3-28T14:37:34Z
2020-03-28T12:39:59Z,42.805,6.029,13.2964,4.59970,2470.017,2020-3-28T14:40:37Z
2020-03-28T12:43:02Z,42.805,6.029,13.2963,4.59968,2470.017,2020-3-28T14:43:40Z
2020-03-28T12:46:06Z,42.805,6.029,13.2964,4.59969,2470.04,2020-3-28T14:46:44Z
2020-03-28T12:49:09Z,42.805,6.029,13.2964,4.59969,2469.993,2020-3-28T14:49:47Z
2020-03-28T12:52:12Z,42.805,6.029,13.2967,4.59968,2469.993,2020-3-28T14:52:50Z
2020-03-28T12:55:16Z,42.805,6.029,13.2966,4.59970,2470.017,2020-3-28T14:55:54Z
2020-03-28T12:58:19Z,42.805,6.029,13.2964,4.59969,2469.984,2020-3-28T14:58:57Z
2020-03-28T13:01:22Z,42.805,6.029,13.2967,4.59968,2470.007,2020-3-28T15:02:00Z
2020-03-28T13:04:25Z,42.805,6.029,13.2964,4.59968,2469.993,2020-3-28T15:05:04Z
2020-03-28T13:07:29Z,42.805,6.029,13.2963,4.59968,2470.007,2020-3-28T15:08:07Z
2020-03-28T13:10:32Z,42.805,6.029,13.2962,4.59968,2469.993,2020-3-28T15:11:10Z
2020-03-28T13:13:35Z,42.805,6.029,13.2966,4.59968,2470.007,2020-3-28T15:14:14Z
2020-03-28T13:16:39Z,42.805,6.029,13.2968,4.59972,2470.03,2020-3-28T15:17:17Z
2020-03-28T13:19:42Z,42.805,6.029,13.2965,4.59970,2470.017,2020-3-28T15:20:20Z
2020-03-28T13:22:45Z,42.805,6.029,13.2968,4.59969,2470.007,2020-3-28T15:23:23Z
2020-03-28T13:25:48Z,42.805,6.029,13.2965,4.59969,2469.993,2020-3-28T15:26:26Z
2020-03-28T13:28:52Z,42.805,6.029,13.2964,4.59968,2469.97,2020-3-28T15:29:30Z
2020-03-28T13:31:55Z,42.805,6.029,13.2966,4.59970,2469.97,2020-3-28T15:32:33Z
2020-03-28T13:34:58Z,42.805,6.029,13.2968,4.59969,2469.984,2020-3-28T15:35:36Z
2020-03-28T13:38:01Z,42.805,6.029,13.2964,4.59969,2469.984,2020-3-28T15:38:40Z
2020-03-28T13:41:05Z,42.805,6.029,13.2966,4.59969,2470.007,2020-3-28T15:41:43Z
2020-03-28T13:44:08Z,42.805,6.029,13.2966,4.59969,2470.007,2020-3-28T15:44:46Z
2020-03-28T13:47:11Z,42.805,6.029,13.2967,4.59968,2469.97,2020-3-28T15:47:49Z
2020-03-28T13:50:14Z,42.805,6.029,13.2964,4.59969,2469.993,2020-3-28T15:50:53Z
2020-03-28T13:53:18Z,42.805,6.029,13.2965,4.59968,2470.017,2020-3-28T15:53:56Z
2020-03-28T13:56:21Z,42.805,6.029,13.2967,4.59968,2470.017,2020-3-28T15:56:59Z
2020-03-28T13:59:24Z,42.805,6.029,13.2965,4.59968,2469.97,2020-3-28T16:00:03Z
2020-03-28T14:02:28Z,42.805,6.029,13.2964,4.59968,2469.96,2020-3-28T16:03:06Z
2020-03-28T14:05:31Z,42.805,6.029,13.2963,4.59968,2469.984,2020-3-28T16:06:09Z
2020-03-28T14:08:34Z,42.805,6.029,13.2968,4.59968,2469.947,2020-3-28T16:09:12Z
2020-03-28T14:11:38Z,42.805,6.029,13.2967,4.59968,2470.007,2020-3-28T16:12:16Z
2020-03-28T14:14:41Z,42.805,6.029,13.2965,4.59968,2469.993,2020-3-28T16:15:19Z
2020-03-28T14:17:44Z,42.805,6.029,13.2965,4.59970,2469.993,2020-3-28T16:18:22Z
2020-03-28T14:20:47Z,42.805,6.029,13.2963,4.59968,2470.007,2020-3-28T16:21:26Z
2020-03-28T14:23:51Z,42.805,6.029,13.2965,4.59971,2469.947,2020-3-28T16:24:29Z
2020-03-28T14:26:54Z,42.805,6.029,13.2964,4.59969,2469.97,2020-3-28T16:27:32Z
2020-03-28T14:29:57Z,42.805,6.029,13.2964,4.59968,2470.007,2020-3-28T16:30:35Z
2020-03-28T14:33:00Z,42.805,6.029,13.2967,4.59968,2469.97,2020-3-28T16:33:39Z
2020-03-28T14:36:04Z,42.805,6.029,13.2965,4.59969,2469.984,2020-3-28T16:36:42Z
2020-03-28T14:39:07Z,42.805,6.029,13.2962,4.59969,2469.97,2020-3-28T16:39:45Z
2020-03-28T14:42:10Z,42.805,6.029,13.2966,4.59973,2469.956,2020-3-28T16:42:48Z
2020-03-28T14:45:13Z,42.805,6.029,13.2964,4.59969,2469.993,2020-3-28T16:45:52Z
2020-03-28T14:48:17Z,42.805,6.029,13.2963,4.59970,2469.923,2020-3-28T16:48:55Z
2020-03-28T14:51:20Z,42.805,6.029,13.2966,4.59967,2469.947,2020-3-28T16:51:58Z
2020-03-28T14:54:23Z,42.805,6.029,13.2963,4.59968,2469.947,2020-3-28T16:55:01Z
2020-03-28T14:57:26Z,42.805,6.029,13.2965,4.59968,2469.97,2020-3-28T16:58:05Z
2020-03-28T15:00:30Z,42.805,6.029,13.2965,4.59968,2469.97,2020-3-28T17:01:08Z
2020-03-28T15:03:33Z,42.805,6.029,13.2964,4.59968,2469.947,2020-3-28T17:04:11Z
2020-03-28T15:06:36Z,42.805,6.029,13.2968,4.59968,2469.97,2020-3-28T17:07:14Z
2020-03-28T15:09:39Z,42.805,6.029,13.2968,4.59970,2469.96,2020-3-28T17:10:17Z
2020-03-28T15:12:43Z,42.805,6.029,13.2964,4.59968,2469.947,2020-3-28T17:13:21Z
2020-03-28T15:15:46Z,42.805,6.029,13.2963,4.59968,2469.914,2020-3-28T17:16:24Z